Portada
METAR-TAF:

METAR-TAF

Aeropuertos :

Russellville Regional Airport

Russellville, Arkansas, Estados Unidos

latitud: 35-15-32N, longitud: 093-05-36W, altitud: 123 m

Observación

El informe se hizo hace 58 minutos, a las 21:53 UTC
Viento 4 kt con dirección variable
Temperatura 32°C
Humedad 56%
Presión 1016 hPa
Visibilidad: 16.1 km
Escasas nubes a una altura de 3900 ft
Escasas nubes a una altura de 9500 ft

METAR: KRUE 012153Z AUTO VRB04KT 10SM FEW039 FEW095 32/22 A3000 RMK AO2 LTG DSNT S AND SW SLP150 T03170222

Hora: 17:51 (22:51 UTC)


TAF: falta

Observaciones y pronósticos meteorológicos de más de 4000 aeropuertos (mensajes METAR y TAF).

Los puntos amarillos y rojos representan las estaciones disponibles.

Ponga el ratón en el punto deseado para ver el nombre de la estación.

Haga clic para ver las observaciones y los pronósticos meteorológicos.

Para cambiar el mapa : haga clic en los botones verdes con una cruz de color negro para hacer un zoom, en el botón verde con un guión para alejar o en las flechas verdes para mapas adyacentes.


METAR-TAF: